(187077) = 2005 NR48

Discovered at Kitt Peak on 2005-07-08 by Spacewatch.

Orbit

Orbit type: Main Belt

Note: WebGL enabled browser required.

epoch2024-03-31.0
epoch JD2460400.5
perihelion date2022-01-30.17894
perihelion JD2459609.67894
argument of perihelion (°)145.25636
ascending node (°)159.19876
inclination (°)4.93923
eccentricity0.1911821
perihelion distance (AU)1.7958900
Tisserand w.r.t. Jupiter3.6
ΔV w.r.t. Earth (km/sec)8.4
semimajor axis (AU)2.2203886
mean anomaly (°)235.58009
mean daily motion (°/day)0.29789300
aphelion distance (AU)2.645
period (years)3.31
P-vector [x]0.56651211
P-vector [y]-0.77423097
P-vector [z]-0.28218866
Q-vector [x]0.82348596
Q-vector [y]0.54460021
Q-vector [z]0.15900150
absolute magnitude17.43
phase slope0.15
uncertainty0
referenceMPEC 2024-E109
observations used426
oppositions15
arc length (days)8383
first opposition used2001
last opposition used2024
residual rms (arc-secs)0.72
perturbers coarse indicatorM-v
perturbers precise indicator003Ek
first observation date used2001-03-24.0
last observation date used2024-03-06.0
computer nameMPCLINUX
JD of orbit computation2456760.741944
perihelion JD uncertainty (days)8.5124E-05
argument of perihelion uncertainty (°)5.1752E-05
ascending node uncertainty (°)4.7890E-05
inclination uncertainty (°)4.0178E-06
eccentricity uncertainty 3.6937E-08
perihelion distance uncertainty (AU)8.2266E-08
Minimum Orbit Intersection Distances (in AU)
for orbit epoch: 2460400.5, reference: E2024-EA9
Mercury1.36197
Venus1.07297
Earth0.78337
Mars0.4134
Jupiter2.5909
Saturn6.45039
Uranus15.8721
Neptune27.454

Observations

442 total observations over interval: 2001 03 24.17997 – 2024 03 06.358294
These data are available for download (format description).

Date (UT) J2000 RA J2000 Dec Magn Location Ref
2001 03 24.17997 11 37 00.58 +05 15 17.3 21.6 V 691 – Steward Observatory, Kitt Peak-Spacewatch MPS 139680
2001 03 24.20112 11 36 59.35 +05 15 28.2 21.1 V 691 – Steward Observatory, Kitt Peak-Spacewatch MPS 139680
2001 03 24.22222 11 36 58.09 +05 15 38.8 20.7 V 691 – Steward Observatory, Kitt Peak-Spacewatch MPS 139680
2002 10 02.56966 02 20 29.93 +07 21 53.1 21.1   608 – Haleakala-AMOS MPS 139369
2002 10 02.58038 02 20 29.47 +07 21 47.4 20.9   608 – Haleakala-AMOS MPS 139369
2002 10 02.59109 02 20 28.92 +07 21 43.1 21.2   608 – Haleakala-AMOS MPS 139369
2002 10 31.25254 01 53 44.26 +03 50 10.6 18.9   704 – Lincoln Laboratory ETS, New Mexico MPS 139369
2002 10 31.28670 01 53 42.30 +03 49 59.1 19.4   704 – Lincoln Laboratory ETS, New Mexico MPS 139369
2002 10 31.30381 01 53 41.27 +03 49 51.0 20.0   704 – Lincoln Laboratory ETS, New Mexico MPS 139369
2002 10 31.32096 01 53 40.18 +03 49 46.7 19.8   704 – Lincoln Laboratory ETS, New Mexico MPS 139369
2005 06 04.43466 21 11 42.90 -09 34 45.3 19.5 V 703 – Catalina Sky Survey MPS 139369
2005 06 04.43896 21 11 43.18 -09 34 44.9 20.4 V 703 – Catalina Sky Survey MPS 139369
2005 06 04.44324 21 11 43.36 -09 34 41.6 19.9 V 703 – Catalina Sky Survey MPS 139369
2005 06 04.44752 21 11 43.65 -09 34 40.8 20.9 V 703 – Catalina Sky Survey MPS 139369
2005 07 08.37046 21 26 31.52 -08 34 43.3 19.4 V 691 – Steward Observatory, Kitt Peak-Spacewatch MPS 138041
2005 07 08.38774 21 26 31.32 -08 34 45.7 19.5 V 691 – Steward Observatory, Kitt Peak-Spacewatch MPS 138041
2005 07 08.40509 21 26 31.12 -08 34 48.0 19.5 V 691 – Steward Observatory, Kitt Peak-Spacewatch MPS 138041
2005 07 11.30280 21 25 59.70 -08 42 40.2 19.1 V 703 – Catalina Sky Survey MPS 138041
2005 07 11.31086 21 25 59.52 -08 42 42.2 19.4 V 703 – Catalina Sky Survey MPS 138041
2005 07 11.31893 21 25 59.41 -08 42 43.8 19.2 V 703 – Catalina Sky Survey MPS 138041
2005 07 11.32712 21 25 59.23 -08 42 44.8 19.4 V 703 – Catalina Sky Survey MPS 138041
2005 07 25.52450 21 19 43.23 -09 52 57.6 19.9   608 – Haleakala-AMOS MPS 138913
2005 07 25.53529 21 19 42.79 -09 53 01.5 19.6   608 – Haleakala-AMOS MPS 138913
2005 07 25.54597 21 19 42.35 -09 53 05.9 19.8   608 – Haleakala-AMOS MPS 138913
2005 07 28.22998 21 17 58.35 -10 11 39.7 18.5   644 – Palomar Mountain/NEAT MPS 138913
2005 07 28.26253 21 17 56.94 -10 11 53.7 18.4   644 – Palomar Mountain/NEAT MPS 138913
2005 07 28.29618 21 17 55.46 -10 12 08.6 18.2   644 – Palomar Mountain/NEAT MPS 138913
2005 07 28.30077 21 17 55.26 -10 12 10.4 18.3   644 – Palomar Mountain/NEAT MPS 138913
2005 07 28.32151 21 17 54.32 -10 12 19.5 18.4   644 – Palomar Mountain/NEAT MPS 138913
2005 07 28.34606 21 17 53.24 -10 12 30.1 18.4   644 – Palomar Mountain/NEAT MPS 138913
2005 07 29.29685 21 17 14.33 -10 19 25.0 18.5   644 – Palomar Mountain/NEAT MPS 138913
2005 07 29.34002 21 17 12.37 -10 19 44.3 18.4   644 – Palomar Mountain/NEAT MPS 138913
2005 07 29.38994 21 17 10.10 -10 20 06.4 18.4   644 – Palomar Mountain/NEAT MPS 138913
2005 07 31.56705 21 15 37.51 -10 36 21.2 17.9 V E12 – Siding Spring Survey MPS 139369
2005 07 31.57743 21 15 37.15 -10 36 27.2 18.1 V E12 – Siding Spring Survey MPS 139369
2005 07 31.58764 21 15 36.57 -10 36 32.2 18.3 V E12 – Siding Spring Survey MPS 139369
2005 07 31.59760 21 15 36.14 -10 36 37.8 18.3 V E12 – Siding Spring Survey MPS 139369
2005 08 25.26541 20 58 16.58 -14 04 48.9 18.5   644 – Palomar Mountain/NEAT MPS 139680
2005 08 25.28880 20 58 15.78 -14 05 00.0 18.6   644 – Palomar Mountain/NEAT MPS 139680
2005 08 25.31358 20 58 14.92 -14 05 11.8 18.3   644 – Palomar Mountain/NEAT MPS 139680
2005 08 27.58447 20 57 08.82 -14 22 43.8 18.6 V E12 – Siding Spring Survey MPS 140232
2005 08 27.59295 20 57 08.56 -14 22 46.6 19.1 V E12 – Siding Spring Survey MPS 140232
2005 08 27.60151 20 57 08.35 -14 22 51.3 19.1 V E12 – Siding Spring Survey MPS 140232
2005 08 27.61021 20 57 08.06 -14 22 54.9 19.7 V E12 – Siding Spring Survey MPS 140232
2005 11 03.08074 21 39 17.92 -15 37 20.1 20.4 V G96 – Mt. Lemmon Survey MPS 147496
2005 11 03.08620 21 39 18.39 -15 37 18.8 21.0 V G96 – Mt. Lemmon Survey MPS 147496
2005 11 03.09168 21 39 18.86 -15 37 17.0 20.3 V G96 – Mt. Lemmon Survey MPS 147496
2005 11 03.09718 21 39 19.33 -15 37 15.5 21.1 V G96 – Mt. Lemmon Survey MPS 147496
2008 04 03.46486 15 53 24.71 -13 03 28.6 20.6 V 691 – Steward Observatory, Kitt Peak-Spacewatch MPS 244697
2008 04 03.48249 15 53 24.70 -13 03 23.9 20.4 V 691 – Steward Observatory, Kitt Peak-Spacewatch MPS 244697
2008 04 03.50009 15 53 24.77 -13 03 19.7 20.3 V 691 – Steward Observatory, Kitt Peak-Spacewatch MPS 244697
2008 04 08.44915 15 53 21.36 -12 40 52.9 20.1 V 691 – Steward Observatory, Kitt Peak-Spacewatch MPS 245748
2008 04 08.46681 15 53 21.27 -12 40 49.6 20.0 V 691 – Steward Observatory, Kitt Peak-Spacewatch MPS 245748
2008 04 08.48445 15 53 21.02 -12 40 44.4 20.4 V 691 – Steward Observatory, Kitt Peak-Spacewatch MPS 245748
2008 04 25.26148 15 47 03.00 -11 08 26.1 20.0 V 691 – Steward Observatory, Kitt Peak-Spacewatch MPS 247753
2008 04 25.27908 15 47 02.32 -11 08 19.8 20.1 V 691 – Steward Observatory, Kitt Peak-Spacewatch MPS 247753
2008 04 25.29667 15 47 01.57 -11 08 13.4 20.0 V 691 – Steward Observatory, Kitt Peak-Spacewatch MPS 247753
2008 04 27.26799 15 45 42.47 -10 56 18.3 19.9 V 691 – Steward Observatory, Kitt Peak-Spacewatch MPS 248128
2008 04 27.28560 15 45 41.68 -10 56 12.0 19.7 V 691 – Steward Observatory, Kitt Peak-Spacewatch MPS 248128
2008 04 27.30320 15 45 40.92 -10 56 06.0 19.8 V 691 – Steward Observatory, Kitt Peak-Spacewatch MPS 248128
2008 04 30.26112 15 43 30.25 -10 38 04.2 19.9 V 691 – Steward Observatory, Kitt Peak-Spacewatch MPS 248128
2008 04 30.27626 15 43 29.49 -10 37 59.0 20.1 V 691 – Steward Observatory, Kitt Peak-Spacewatch MPS 248128
2008 04 30.29142 15 43 28.74 -10 37 53.4 19.8 V 691 – Steward Observatory, Kitt Peak-Spacewatch MPS 248128
2008 04 30.30898 15 43 27.93 -10 37 46.5 19.3   704 – Lincoln Laboratory ETS, New Mexico MPS 248128
2008 04 30.31906 15 43 27.44 -10 37 42.3 19.6   704 – Lincoln Laboratory ETS, New Mexico MPS 248128
2008 04 30.32918 15 43 26.84 -10 37 38.7 19.7   704 – Lincoln Laboratory ETS, New Mexico MPS 248128
2008 04 30.33928 15 43 26.44 -10 37 35.6 19.4   704 – Lincoln Laboratory ETS, New Mexico MPS 248128
2008 05 01.26692 15 42 42.73 -10 31 56.0 19.8 V 691 – Steward Observatory, Kitt Peak-Spacewatch MPS 248128
2008 05 01.28454 15 42 41.84 -10 31 49.8 19.6 V 691 – Steward Observatory, Kitt Peak-Spacewatch MPS 248128
2008 05 01.30511 15 42 40.82 -10 31 42.1 19.6 V 691 – Steward Observatory, Kitt Peak-Spacewatch MPS 248128
2008 05 05.25748 15 39 21.09 -10 07 42.5 20.5 V 691 – Steward Observatory, Kitt Peak-Spacewatch MPS 248965
2008 05 05.27513 15 39 20.08 -10 07 36.5 19.7 V 691 – Steward Observatory, Kitt Peak-Spacewatch MPS 248965
2008 05 05.29281 15 39 19.11 -10 07 30.4 19.6 V 691 – Steward Observatory, Kitt Peak-Spacewatch MPS 248965
2008 05 08.24141 15 36 38.56 -09 49 58.4   691 – Steward Observatory, Kitt Peak-Spacewatch MPS 248965
2008 05 08.25910 15 36 37.53 -09 49 52.3   691 – Steward Observatory, Kitt Peak-Spacewatch MPS 248965
2008 05 08.27678 15 36 36.49 -09 49 46.1   691 – Steward Observatory, Kitt Peak-Spacewatch MPS 248965
2008 05 12.30662 15 32 45.34 -09 26 45.2 18.6   704 – Lincoln Laboratory ETS, New Mexico MPS 249812
2008 05 12.31706 15 32 44.72 -09 26 40.5 19.4   704 – Lincoln Laboratory ETS, New Mexico MPS 249812
2008 05 12.32748 15 32 44.01 -09 26 37.8 19.3   704 – Lincoln Laboratory ETS, New Mexico MPS 249812
2008 05 12.33791 15 32 43.47 -09 26 33.8 19.5   704 – Lincoln Laboratory ETS, New Mexico MPS 249812
2008 05 16.20801 15 28 54.83 -09 05 53.9 19.5 V 691 – Steward Observatory, Kitt Peak-Spacewatch MPS 249812
2008 05 16.22335 15 28 53.88 -09 05 49.3 19.4 V 691 – Steward Observatory, Kitt Peak-Spacewatch MPS 249812
2008 05 16.23869 15 28 52.94 -09 05 44.8 19.5 V 691 – Steward Observatory, Kitt Peak-Spacewatch MPS 249812
2008 05 29.17514 15 16 27.98 -08 12 20.7 19.7 V 691 – Steward Observatory, Kitt Peak-Spacewatch MPS 250904
2008 05 29.19271 15 16 26.99 -08 12 17.6 19.7 V 691 – Steward Observatory, Kitt Peak-Spacewatch MPS 250904
